This is the latest recevied weather packets stored in our database for station/object N3SBK. If no packets are shown the sender has not sent any weather packets the latest 10 day(s).
| Time | Temp. | Humidity | Pressure | Rain* | Wind** | Luminosity | Snow |
|---|---|---|---|---|---|---|---|
| 1788134199 | 22.78° C | 87% | 1011.4 hPa | 0 mm | - | 0 W/m² | - |
| 1788133894 | 22.78° C | 87% | 1011.3 hPa | 0 mm | - | 1 W/m² | - |
| 1788133589 | 22.78° C | 87% | 1011.3 hPa | 0 mm | - | 2 W/m² | - |
| 1788133284 | 22.78° C | 86% | 1011.5 hPa | 0 mm | - | 3 W/m² | - |
| 1788132980 | 22.78° C | 85% | 1011.2 hPa | 0 mm | - | 3 W/m² | - |
| 1788132675 | 23.33° C | 85% | 1011.1 hPa | 0 mm | - | 4 W/m² | - |
| 1788132372 | 23.33° C | 85% | 1011.6 hPa | 0 mm | - | 5 W/m² | - |
| 1788132067 | 23.33° C | 84% | 1011.4 hPa | 0 mm | - | 6 W/m² | - |
| 1788131763 | 23.33° C | 84% | 1011.3 hPa | 0 mm | - | 6 W/m² | - |
| 1788131462 | 23.33° C | 83% | 1011.2 hPa | 0 mm | - | 8 W/m² | - |
| 1788131158 | 23.33° C | 82% | 1011.4 hPa | 0 mm | - | 9 W/m² | - |
| 1788130852 | 23.89° C | 82% | 1011.3 hPa | 0 mm | - | 12 W/m² | - |
| 1788130548 | 23.89° C | 83% | 1011.3 hPa | 0 mm | - | 13 W/m² | - |
| 1788130248 | 23.89° C | 83% | 1011.5 hPa | 0 mm | - | 19 W/m² | - |
| 1788129946 | 23.89° C | 83% | 1011.5 hPa | 0 mm | - | 23 W/m² | - |
| 1788129643 | 23.89° C | 83% | 1011.4 hPa | 0 mm | - | 21 W/m² | - |
| 1788129339 | 23.89° C | 81% | 1011.2 hPa | 0 mm | - | 29 W/m² | - |
| 1788129039 | 23.89° C | 80% | 1011.7 hPa | 0 mm | - | 43 W/m² | - |
| 1788128734 | 24.44° C | 81% | 1011.5 hPa | 0 mm | - | 46 W/m² | - |
| 1788128430 | 24.44° C | 81% | 1011.3 hPa | 0 mm | - | 53 W/m² | - |
| 1788128126 | 24.44° C | 81% | 1011.4 hPa | 0 mm | - | 47 W/m² | - |
| 1788127822 | 24.44° C | 80% | 1011.3 hPa | 0 mm | - | 36 W/m² | - |
| 1788127521 | 24.44° C | 79% | 1011.5 hPa | 0 mm | - | 40 W/m² | - |
| 1788127219 | 24.44° C | 80% | 1011.4 hPa | 0 mm | - | 52 W/m² | - |
| 1788126914 | 25° C | 81% | 1011.3 hPa | 0 mm | - | 47 W/m² | - |
* Rain latest hour (hover to see other rain measurements)
** Current wind speed in m/s (hover to see current wind gust speed)